KF4PPJ Weather Reports


Display with metric or nautical units.
time (UTC)temp
F
wind
direction
speed
MPH
gust
MPH
rain 1hr
in
rain 24hr
in
rain mn
in
humidity
%
barometer
mb
20260509030917 57 141 0.0 0.0 0.00 0.00 0.00 72 1024.7
20260509030415 57 148 0.0 0.0 0.00 0.00 0.00 70 1024.5
20260509025912 58 150 0.0 1.0 0.00 0.00 0.00 70 1024.5
20260509025407 58 140 0.0 1.0 0.00 0.00 0.00 69 1024.4
20260509024902 58 153 0.0 1.0 0.00 0.00 0.00 68 1024.4
20260509024359 59 222 2.0 3.0 0.00 0.00 0.00 67 1024.4
20260509023856 59 162 3.0 3.0 0.00 0.00 0.00 66 1024.4
20260509023353 59 185 1.0 2.0 0.00 0.00 0.00 65 1024.5
20260509022850 60 189 3.0 5.0 0.00 0.00 0.00 64 1024.3
20260509022347 60 170 0.0 5.0 0.00 0.00 0.00 64 1024.2
20260509021844 60 184 2.0 6.0 0.00 0.00 0.00 63 1024.1
20260509021341 60 177 3.0 6.0 0.00 0.00 0.00 62 1024.3
20260509020839 60 209 2.0 5.0 0.00 0.00 0.00 63 1024.4
20260509020337 60 209 3.0 6.0 0.00 0.00 0.00 62 1024.5
20260509015834 60 198 3.0 7.0 0.00 0.00 0.00 62 1024.5
20260509015332 60 191 2.0 5.0 0.00 0.00 0.00 63 1024.6
20260509014828 60 187 1.0 3.0 0.00 0.00 0.00 63 1024.6
20260509014325 60 207 3.0 5.0 0.00 0.00 0.00 61 1024.4
20260509013822 60 190 3.0 7.0 0.00 0.00 0.00 61 1024.5
20260509013318 61 211 3.0 9.0 0.00 0.00 0.00 61 1024.1
20260509012815 61 150 7.0 8.0 0.00 0.00 0.00 60 1024.5
20260509012311 61 168 3.0 7.0 0.00 0.00 0.00 59 1024.4
20260509011809 61 112 5.0 6.0 0.00 0.00 0.00 59 1024.4
20260509011306 60 180 3.0 3.0 0.00 0.00 0.00 60 1024.4
20260509010804 61 218 3.0 7.0 0.00 0.00 0.00 59 1024.4
20260509010300 61 228 5.0 6.0 0.00 0.00 0.00 59 1024.3
20260509005752 61 161 1.0 3.0 0.00 0.00 0.00 59 1024.7
20260509005249 61 219 4.0 7.0 0.00 0.00 0.00 59 1024.5
20260509004744 60 223 3.0 6.0 0.00 0.00 0.00 60 1024.4
20260509004241 61 226 5.0 7.0 0.00 0.00 0.00 59 1024.4
20260509003739 61 183 1.0 6.0 0.00 0.00 0.00 58 1024.6
20260509003236 61 223 6.0 7.0 0.00 0.00 0.00 57 1024.6
20260509002734 62 251 4.0 9.0 0.00 0.00 0.00 56 1024.5
20260509002231 62 224 5.0 7.0 0.00 0.00 0.00 56 1024.4
20260509001729 63 194 7.0 8.0 0.00 0.00 0.00 55 1024.6
20260509001224 62 174 3.0 8.0 0.00 0.00 0.00 56 1024.3
20260509000722 62 137 2.0 8.0 0.00 0.00 0.00 57 1024.5
20260509000219 63 162 3.0 7.0 0.00 0.00 0.00 55 1024.5
20260508235716 63 147 5.0 9.0 0.00 0.00 0.00 55 1024.7
20260508235212 63 234 4.0 8.0 0.00 0.00 0.00 55 1024.4
20260508234710 63 262 5.0 9.0 0.00 0.00 0.00 54 1024.4
20260508234206 63 144 5.0 9.0 0.00 0.00 0.00 54 1024.5
20260508233706 63 180 6.0 7.0 0.00 0.00 0.00 54 1024.3
20260508233203 63 189 5.0 10.0 0.00 0.00 0.00 55 1024.3
20260508232700 63 141 4.0 11.0 0.00 0.00 0.00 54 1024.4
20260508232156 63 232 6.0 8.0 0.00 0.00 0.00 54 1024.5
20260508231655 63 189 4.0 10.0 0.00 0.00 0.00 52 1024.3
20260508231151 62 200 3.0 6.0 0.00 0.00 0.00 54 1024.5
20260508230648 62 197 6.0 9.0 0.00 0.00 0.00 55 1024.3
20260508230144 62 231 4.0 7.0 0.00 0.00 0.00 54 1024.6
20260508225642 63 130 3.0 6.0 0.00 0.00 0.00 53 1024.6
20260508225138 63 157 4.0 9.0 0.00 0.00 0.00 52 1024.4
20260508224636 62 237 5.0 8.0 0.00 0.00 0.00 54 1024.6
20260508224134 62 226 7.0 9.0 0.00 0.00 0.00 53 1024.5
20260508223631 62 205 3.0 10.0 0.00 0.00 0.00 53 1024.5
20260508223128 62 226 6.0 14.0 0.00 0.00 0.00 53 1024.6
20260508222626 62 164 7.0 10.0 0.00 0.00 0.00 52 1024.7
20260508222122 61 282 8.0 10.0 0.00 0.00 0.00 55 1024.6
20260508221618 61 234 5.0 9.0 0.00 0.00 0.00 56 1024.3
20260508221114 62 261 7.0 7.0 0.00 0.00 0.00 55 1024.3
20260508220611 62 212 3.0 7.0 0.00 0.00 0.00 55 1024.6
20260508220108 61 191 7.0 8.0 0.00 0.00 0.00 55 1024.7
20260508215559 62 235 5.0 9.0 0.00 0.00 0.00 55 1024.6
20260508215056 61 230 3.0 6.0 0.00 0.00 0.00 56 1024.6
20260508214553 60 228 6.0 13.0 0.00 0.00 0.00 56 1024.7
20260508214049 61 240 6.0 14.0 0.00 0.00 0.00 55 1024.4
20260508213547 60 202 7.0 11.0 0.00 0.00 0.00 56 1024.7
20260508213043 60 189 2.0 10.0 0.00 0.00 0.00 57 1024.5
20260508212539 60 244 7.0 10.0 0.00 0.00 0.00 57 1024.5
20260508212036 60 186 5.0 10.0 0.00 0.00 0.00 57 1024.5
20260508211531 60 249 8.0 9.0 0.00 0.00 0.00 57 1024.5
20260508211028 60 268 7.0 9.0 0.00 0.00 0.00 57 1024.6
20260508210525 59 227 8.0 9.0 0.00 0.00 0.00 58 1024.4
20260508210022 59 205 3.0 6.0 0.00 0.00 0.00 60 1024.4
20260508205519 59 250 8.0 9.0 0.00 0.00 0.00 59 1024.5
20260508205015 59 244 7.0 10.0 0.00 0.00 0.00 59 1024.5
20260508204512 59 184 5.0 10.0 0.00 0.00 0.00 60 1024.0
20260508204008 58 208 5.0 9.0 0.00 0.00 0.00 60 1024.3
20260508203504 59 175 5.0 8.0 0.00 0.00 0.00 60 1024.2
20260508202959 59 254 8.0 11.0 0.00 0.00 0.00 60 1024.5
20260508202457 59 236 5.0 7.0 0.00 0.00 0.00 62 1024.1
20260508201954 58 201 5.0 7.0 0.00 0.00 0.00 61 1024.2
20260508201450 57 168 5.0 16.0 0.00 0.00 0.00 62 1024.2
20260508200947 58 163 7.0 13.0 0.00 0.00 0.00 61 1024.3
20260508200444 58 243 8.0 13.0 0.00 0.00 0.00 61 1024.4
20260508195938 57 224 4.0 7.0 0.00 0.00 0.00 62 1024.2
20260508195436 57 170 3.0 7.0 0.00 0.00 0.00 62 1024.2
20260508194932 57 181 10.0 11.0 0.00 0.00 0.00 61 1024.3
20260508194429 57 217 8.0 9.0 0.00 0.00 0.00 62 1024.4
20260508193926 57 163 4.0 7.0 0.00 0.00 0.00 62 1024.4
20260508193423 57 210 11.0 14.0 0.00 0.00 0.00 63 1024.3
20260508192919 56 207 3.0 7.0 0.00 0.00 0.00 64 1024.2
20260508192416 56 151 5.0 18.0 0.00 0.00 0.00 63 1024.3
20260508191913 56 163 4.0 7.0 0.00 0.00 0.00 64 1024.3
20260508191412 55 178 6.0 18.0 0.00 0.00 0.00 64 1024.1
20260508190908 55 248 6.0 13.0 0.00 0.00 0.00 65 1024.1
20260508190405 55 170 9.0 14.0 0.00 0.00 0.00 67 1024.2
20260508185901 55 167 7.0 9.0 0.00 0.00 0.00 67 1024.2
20260508185359 54 293 4.0 7.0 0.00 0.00 0.00 69 1024.3
20260508184856 54 232 9.0 11.0 0.00 0.00 0.00 68 1024.2
20260508184353 54 136 5.0 7.0 0.00 0.00 0.00 69 1024.3
20260508183849 54 214 9.0 14.0 0.00 0.00 0.00 69 1024.3
20260508183346 54 196 6.0 10.0 0.00 0.00 0.00 69 1024.2
20260508182842 54 184 5.0 7.0 0.00 0.00 0.00 70 1024.1
20260508182339 54 187 6.0 11.0 0.00 0.00 0.00 69 1024.1
20260508181834 55 239 4.0 6.0 0.00 0.00 0.00 69 1024.0
20260508181331 55 211 2.0 9.0 0.00 0.00 0.00 68 1024.0
20260508180828 55 242 5.0 8.0 0.00 0.00 0.00 69 1023.9
20260508180325 55 155 4.0 8.0 0.00 0.00 0.00 69 1023.7
20260508175821 55 119 3.0 9.0 0.00 0.00 0.00 69 1023.7
20260508175318 55 181 5.0 8.0 0.00 0.00 0.00 68 1023.6
20260508174816 54 205 8.0 11.0 0.00 0.00 0.00 69 1023.7
20260508174313 54 156 8.0 10.0 0.00 0.00 0.00 70 1023.5
20260508173809 54 192 6.0 8.0 0.00 0.00 0.00 70 1023.5
20260508173307 53 164 5.0 13.0 0.00 0.00 0.00 72 1023.5
20260508172802 53 208 5.0 8.0 0.00 0.00 0.00 73 1023.3
20260508172300 53 174 3.0 7.0 0.00 0.00 0.00 73 1023.1
20260508171755 53 167 2.0 5.0 0.00 0.00 0.00 74 1023.1
20260508171252 53 191 7.0 10.0 0.00 0.00 0.00 73 1023.1
20260508170749 53 206 5.0 7.0 0.00 0.00 0.00 73 1023.1
20260508170247 53 193 5.0 7.0 0.00 0.00 0.00 73 1023.1
20260508165744 53 198 2.0 7.0 0.00 0.00 0.00 74 1022.9
20260508165241 53 179 4.0 7.0 0.00 0.00 0.00 75 1023.2
20260508164737 53 218 3.0 5.0 0.00 0.00 0.00 75 1022.8
20260508164233 53 230 5.0 5.0 0.00 0.00 0.00 74 1022.7
20260508163732 53 174 0.0 3.0 0.00 0.00 0.00 74 1022.8
20260508163229 53 169 2.0 6.0 0.00 0.00 0.00 73 1022.7
20260508162725 53 213 4.0 6.0 0.00 0.00 0.00 73 1022.9
20260508162222 53 250 5.0 6.0 0.00 0.00 0.00 73 1022.7
20260508161719 53 225 3.0 6.0 0.00 0.00 0.00 73 1022.7
20260508161216 53 194 2.0 3.0 0.00 0.00 0.00 73 1022.7
20260508160714 53 138 2.0 6.0 0.00 0.00 0.00 72 1022.6
20260508160212 53 133 3.0 3.0 0.00 0.00 0.00 72 1022.8
20260508155708 53 231 4.0 8.0 0.00 0.00 0.00 73 1022.5
20260508155205 53 163 1.0 3.0 0.00 0.00 0.00 74 1022.6
20260508154702 53 176 5.0 6.0 0.00 0.00 0.00 74 1022.5
20260508154159 52 197 4.0 7.0 0.00 0.00 0.00 74 1022.9
20260508153656 52 202 6.0 8.0 0.00 0.00 0.00 74 1022.6
20260508153153 52 156 5.0 7.0 0.00 0.00 0.00 75 1022.8
20260508152649 52 254 5.0 8.0 0.00 0.00 0.00 75 1022.8
20260508152145 52 212 7.0 11.0 0.00 0.00 0.00 74 1022.8
20260508151642 52 224 5.0 10.0 0.00 0.00 0.00 75 1022.8
20260508151139 52 199 8.0 13.0 0.00 0.00 0.00 75 1022.9
20260508150637 52 252 7.0 8.0 0.00 0.00 0.00 75 1022.8
20260508150133 52 192 4.0 8.0 0.00 0.00 0.00 77 1022.7
20260508145629 52 214 4.0 6.0 0.00 0.00 0.00 77 1022.6
20260508145125 52 211 5.0 8.0 0.00 0.00 0.00 77 1022.7
20260508144623 51 177 3.0 9.0 0.00 0.00 0.00 79 1022.6
20260508144115 51 219 7.0 10.0 0.00 0.00 0.00 79 1022.5
20260508143612 51 187 7.0 9.0 0.00 0.00 0.00 80 1022.2
20260508143108 51 218 5.0 8.0 0.00 0.00 0.00 81 1022.3
20260508142605 51 216 4.0 8.0 0.00 0.00 0.00 80 1022.1
20260508142102 51 178 9.0 13.0 0.00 0.00 0.00 81 1022.2
20260508141559 50 221 6.0 9.0 0.00 0.00 0.00 82 1022.0
20260508141056 50 201 5.0 9.0 0.00 0.00 0.00 82 1022.0
20260508140553 50 152 7.0 8.0 0.00 0.00 0.00 82 1021.9
20260508140049 50 210 6.0 9.0 0.00 0.00 0.00 83 1021.9
20260508135544 50 105 3.0 5.0 0.00 0.00 0.00 83 1021.5
20260508135041 50 181 2.0 7.0 0.00 0.00 0.00 82 1021.6
20260508134538 50 214 5.0 7.0 0.00 0.00 0.00 83 1021.5
20260508134035 50 197 7.0 9.0 0.00 0.00 0.00 83 1021.5
20260508133532 50 139 3.0 7.0 0.00 0.00 0.00 83 1021.3
20260508133029 50 206 3.0 7.0 0.00 0.00 0.00 84 1021.2
20260508132527 50 184 4.0 7.0 0.00 0.00 0.00 84 1021.4
20260508132023 50 200 4.0 7.0 0.00 0.00 0.00 84 1021.2
20260508131518 50 184 3.0 3.0 0.00 0.00 0.00 84 1021.0
20260508131015 50 197 3.0 6.0 0.00 0.00 0.00 83 1021.0
20260508130513 50 180 6.0 8.0 0.00 0.00 0.00 84 1021.0
20260508130009 51 201 4.0 6.0 0.00 0.00 0.00 83 1021.0
20260508125505 51 150 3.0 8.0 0.00 0.00 0.00 83 1021.0
20260508125002 50 210 4.0 8.0 0.00 0.00 0.00 83 1020.8
20260508124500 51 222 4.0 5.0 0.00 0.00 0.00 83 1020.7
20260508123957 51 190 2.0 7.0 0.00 0.00 0.00 83 1020.5
20260508123456 51 211 4.0 6.0 0.00 0.00 0.00 83 1020.7
20260508122952 51 210 4.0 5.0 0.00 0.00 0.00 84 1020.6
20260508122449 51 210 3.0 7.0 0.00 0.00 0.00 84 1020.6
20260508121946 51 216 3.0 6.0 0.00 0.00 0.00 84 1020.4
20260508121444 51 206 3.0 8.0 0.00 0.00 0.00 84 1020.6
20260508120942 51 207 2.0 6.0 0.00 0.00 0.00 84 1020.3
20260508120439 51 179 2.0 5.0 0.00 0.00 0.00 84 1020.3
20260508115937 51 134 4.0 5.0 0.00 0.00 0.00 84 1020.3
20260508115435 51 158 2.0 2.0 0.00 0.00 0.00 83 1020.4
20260508114931 51 216 2.0 3.0 0.00 0.00 0.00 84 1020.2
20260508114428 51 186 2.0 5.0 0.00 0.00 0.00 84 1020.2
20260508113924 51 182 1.0 5.0 0.00 0.00 0.00 84 1020.5
20260508113422 51 192 5.0 5.0 0.00 0.00 0.00 85 1020.3
20260508112919 51 180 2.0 5.0 0.00 0.00 0.00 85 1020.3
20260508112416 51 174 1.0 5.0 0.00 0.00 0.00 84 1020.1
20260508111913 51 188 3.0 5.0 0.00 0.00 0.00 84 1019.8
20260508111410 51 224 5.0 7.0 0.00 0.00 0.00 84 1020.1
20260508110907 51 185 1.0 2.0 0.00 0.00 0.00 85 1020.2
20260508110405 51 212 4.0 5.0 0.00 0.00 0.00 85 1020.1
20260508105904 51 140 3.0 3.0 0.00 0.00 0.00 86 1019.9
20260508105400 51 191 2.0 3.0 0.00 0.00 0.00 87 1019.6
20260508104858 51 176 2.0 2.0 0.00 0.00 0.00 88 1020.0
20260508104355 51 146 0.0 2.0 0.00 0.00 0.00 90 1019.6
20260508103852 50 182 2.0 3.0 0.00 0.00 0.00 92 1019.7
20260508103349 50 179 2.0 3.0 0.00 0.00 0.00 93 1019.7
20260508102846 50 167 1.0 3.0 0.00 0.00 0.00 94 1019.6
20260508102344 49 167 2.0 3.0 0.00 0.00 0.00 95 1019.3
20260508101841 49 184 0.0 1.0 0.00 0.00 0.00 95 1019.8
20260508101339 48 163 0.0 0.0 0.00 0.00 0.00 95 1019.7
20260508100836 48 164 0.0 2.0 0.00 0.00 0.00 95 1019.8
20260508100335 48 150 0.0 0.0 0.00 0.00 0.00 95 1019.5
20260508095830 48 156 0.0 0.0 0.00 0.00 0.00 95 1019.5
20260508095328 48 159 0.0 0.0 0.00 0.00 0.00 95 1019.6
20260508094825 48 152 0.0 0.0 0.00 0.00 0.00 95 1019.3
20260508094322 48 152 0.0 0.0 0.00 0.00 0.00 94 1019.8
20260508093819 48 154 0.0 0.0 0.00 0.00 0.00 94 1019.5
20260508093316 48 155 0.0 0.0 0.00 0.00 0.00 94 1019.6
20260508092813 48 155 0.0 0.0 0.00 0.00 0.00 94 1019.5
20260508092313 48 149 0.0 0.0 0.00 0.00 0.00 94 1019.6
20260508091809 48 155 0.0 0.0 0.00 0.00 0.00 94 1019.5
20260508091305 48 151 0.0 0.0 0.00 0.00 0.00 94 1019.5
20260508090803 48 151 0.0 0.0 0.00 0.00 0.00 94 1019.7
20260508090301 48 149 0.0 0.0 0.00 0.00 0.00 94 1019.3
20260508085757 48 149 0.0 0.0 0.00 0.00 0.00 93 1019.5
20260508085254 49 149 0.0 0.0 0.00 0.00 0.00 93 1019.5
20260508084750 49 149 0.0 0.0 0.00 0.00 0.00 93 1019.4
20260508084247 49 149 0.0 0.0 0.00 0.00 0.00 93 1019.2
20260508083745 49 149 0.0 0.0 0.00 0.00 0.00 93 1019.3
20260508083243 49 149 0.0 0.0 0.00 0.00 0.00 93 1019.3
20260508082742 49 149 0.0 0.0 0.00 0.00 0.00 93 1019.4
20260508082240 49 148 0.0 0.0 0.00 0.00 0.00 92 1019.1
20260508081737 49 149 0.0 0.0 0.00 0.00 0.00 92 1019.2
20260508081234 49 148 0.0 0.0 0.00 0.00 0.00 92 1019.3
20260508080731 49 149 0.0 0.0 0.00 0.00 0.00 92 1019.5
20260508080229 49 148 0.0 0.0 0.00 0.00 0.00 91 1019.2
20260508075725 49 148 0.0 0.0 0.00 0.00 0.00 91 1019.3
20260508075222 49 154 0.0 0.0 0.00 0.00 0.00 91 1019.4
20260508074720 49 148 0.0 0.0 0.00 0.00 0.00 91 1019.1
20260508074218 49 137 0.0 0.0 0.00 0.00 0.00 91 1019.3
20260508073714 49 136 0.0 0.0 0.00 0.00 0.00 91 1019.1
20260508073212 49 148 0.0 0.0 0.00 0.00 0.00 90 1019.3
20260508072708 49 152 0.0 0.0 0.00 0.00 0.00 90 1019.4
20260508072205 49 145 0.0 0.0 0.00 0.00 0.00 90 1019.3
20260508071702 49 145 0.0 0.0 0.00 0.00 0.00 89 1019.5
20260508071201 49 163 0.0 0.0 0.00 0.00 0.00 89 1019.4
20260508070657 49 145 0.0 0.0 0.00 0.00 0.00 89 1019.5
20260508070156 49 149 0.0 0.0 0.00 0.00 0.00 89 1019.5
20260508065653 49 149 0.0 0.0 0.00 0.00 0.00 88 1019.5
20260508065151 50 148 0.0 0.0 0.00 0.00 0.00 88 1019.6
20260508064648 50 149 0.0 0.0 0.00 0.00 0.00 87 1019.5
20260508064146 50 149 0.0 0.0 0.00 0.00 0.00 87 1019.5
20260508063643 50 148 0.0 0.0 0.00 0.00 0.00 87 1019.3
20260508063141 50 148 0.0 0.0 0.00 0.00 0.00 87 1019.3
20260508062638 50 149 0.0 0.0 0.00 0.00 0.00 87 1019.2
20260508062135 50 148 0.0 0.0 0.00 0.00 0.00 88 1019.2
20260508061632 50 148 0.0 0.0 0.00 0.00 0.00 88 1019.4
20260508061130 50 149 0.0 0.0 0.00 0.00 0.00 88 1019.3
20260508060626 50 149 0.0 0.0 0.00 0.00 0.00 87 1019.4
20260508060124 50 149 0.0 0.0 0.00 0.00 0.00 87 1019.4
20260508055619 50 149 0.0 0.0 0.00 0.00 0.00 86 1019.5
20260508055116 51 148 0.0 0.0 0.00 0.00 0.00 86 1019.1
20260508054613 51 157 0.0 0.0 0.00 0.00 0.00 85 1019.5
20260508054110 51 165 0.0 0.0 0.00 0.00 0.00 85 1019.5
20260508053607 51 149 0.0 0.0 0.00 0.00 0.00 85 1019.5
20260508053105 51 149 0.0 0.0 0.00 0.00 0.00 84 1019.4
20260508052602 52 149 0.0 0.0 0.00 0.00 0.00 84 1019.4
20260508052059 52 149 0.0 0.0 0.00 0.00 0.00 83 1019.5
20260508051555 52 149 0.0 0.0 0.00 0.00 0.00 83 1019.4
20260508051050 52 149 0.0 0.0 0.00 0.00 0.00 83 1019.7
20260508050547 52 149 0.0 0.0 0.00 0.00 0.00 83 1019.5
20260508050044 52 149 0.0 0.0 0.00 0.00 0.00 83 1019.5
20260508045540 52 149 0.0 0.0 0.00 0.00 0.00 83 1019.6
20260508045038 52 149 0.0 0.0 0.00 0.00 0.00 82 1019.5
20260508044535 53 149 0.0 0.0 0.00 0.00 0.00 82 1019.6
20260508044031 53 149 0.0 0.0 0.00 0.00 0.00 82 1019.8
20260508043528 53 149 0.0 0.0 0.00 0.00 0.00 81 1019.7
20260508043026 53 149 0.0 0.0 0.00 0.00 0.00 80 1019.7
20260508042522 53 149 0.0 0.0 0.00 0.00 0.00 80 1019.7
20260508042020 54 149 0.0 0.0 0.00 0.00 0.00 80 1019.7
20260508041515 54 149 0.0 0.0 0.00 0.00 0.00 80 1019.6
20260508041012 54 149 0.0 0.0 0.00 0.00 0.00 79 1019.7
20260508040509 55 149 0.0 0.0 0.00 0.00 0.00 79 1019.7
20260508040007 55 149 0.0 0.0 0.00 0.00 0.00 79 1019.5
20260508035504 55 149 0.0 0.0 0.00 0.00 0.00 79 1019.8
20260508035000 55 149 0.0 0.0 0.00 0.00 0.00 78 1019.5
20260508034458 56 149 0.0 0.0 0.00 0.00 0.00 77 1019.6
20260508033954 56 149 0.0 0.0 0.00 0.00 0.00 76 1019.3
20260508033452 57 149 0.0 0.0 0.00 0.00 0.00 75 1019.4
20260508032950 57 149 0.0 0.0 0.00 0.00 0.00 74 1019.5
20260508032447 57 149 0.0 0.0 0.00 0.00 0.00 72 1019.4
20260508031944 58 149 0.0 0.0 0.00 0.00 0.00 71 1019.2
20260508031441 58 149 0.0 0.0 0.00 0.00 0.00 71 1019.4